Probability
0 0 0 0 0 0 0 0 0 0 0 0 0 0 0 0 0 0 0 0 0 0 0 0 0 0 0 0 0 0 0 0 0 0 0 0 0 0 0 0 0 0 0 0
0 0 0 0 0 0 0 0 0 0 0 0 0 0 0 0 0 0 0 0 0 0 0 0 0 0 0 0 0 0 0 0 0 0 0 0 0 0 0 0 0 0 0 0
0 0 0 0 0 0 0 0 0 0 0 0 0 0 0 0 0 0 0 0 0 0 0 0 0 0 0 0 0 0 0 0 0 0 0 0 0 0 0 0 0 0 0 0
0 0 0 0 0 0 0 0 0 0 0 0 0 0 0 0 0 0 0 0 0 0 0 0 0 0 0 0 0 0 0 0 0 0 0 0 0 0 0 0 0 0 0 0
0 0 0 0 0 0 0 0 0 0 0 0 0 0 0 0 0 0 0 0 0 0 0 0 0 0 0 0 0 0 0 0 0 0 0 0 0 0 0 0 0 0 0 0
0 0 0 0 0 0 0 0 0 0 0 0 0 0 0 0 0 0 0 0 0 0 0 0 0 0 0 0 0 0 0 0 0 0 0 0 0 0 0 0 0 0 0 0
0 0 0 0 0 0 0 0 0 0 0 0 0 0 0 0 0 0 0 0 0 0 0 0 0 0 0 0 0 0 0 0 0 0 0 0 0 0 0 0 0 0 0 0
0 0 0 0 0 0 0 0 0 0 0 0 0 0 0 0 0 0 0 0 0 0 0 0 0 0 0 0 0 0 0 0 0 0 0 0 0 0 0 0 0 0 0 0
0 0 0 0 0 0 0 0 0 0 0 0 0 0 0 0 0 0 0 0 0 0 0 0 0 0 0 0 0 0 0 0 0 0 0 0 0 0 0 0 0 0 0 0
0 0 0 0 0 0 0 0 0 0 0 0 0 0 0 0 0 0 0 0 0 0 0 0 0 0 0 0 0 0 0 0 0 0 0 0 0 0 0 0 0 0 0 0
0 0 0 0 0 0 0 0 0 0 0 0 0 0 0 0 0 0 0 0 0 0 0 0 0 0 0 0 0 0 0 0 0 0 0 0 0 0 0 0 0 0 0 0
0 0 0 0 0 0 0 0 0 0 0 0 0 0 0 0 0 0 0 0 0 0 0 0 0 0 0 0 0 0 0 0 0 0 0 0 0 0 0 0 0 0 0 0
0 0 0 0 0 0 0 0 0 0 0 0 0 0 0 0 0 0 0 0 0 0 0 0 0 0 0 0 0 0 0 0 0 0 0 0 0 0 0 0 0 0 0 0
0 0 0 0 0 0 0 0 0 0 0 0 0 0 0 0 0 0 0 0 0 0 0 0 0 0 0 0 0 0 0 0 0 0 0 0 0 0 0 0 0 0 0 0
0 0 0 0 0 0 0 0 0 0 0 0 0 0 0 0 0 0 0 0 0 0 0 0 0 0 0 0 0 0 0 0 0 0 0 0 0 0 0 0 0 0 0 0
0 0 0 0 0 0 0 0 0 0 0 0 0 0 0 0 0 0 0 0 0 0 0 0 0 0 0 0 0 0 0 0 0 0 0 0 0 0 0 0 0 0 0 0
0 0 0 0 0 0 0 0 0 0 0 0 0 0 0 0 0 0 0 0 0 0 0 0 0 0 0 0 0 0 0 0 0 0 0 0 0 0 0 0 0 0 0 0
0 0 0 0 0 0 0 0 0 0 0 0 0 0 0 0 0 0 0 0 0 0 0 0 0 0 0 0 0 0 0 0 0 0 0 0 0 0 0 0 0 0 0 0
0 0 0 0 0 0 0 0 0 0 0 0 0 0 0 0 0 0 0 0 0 0 0 0 0 0 0 0 0 0 0 0 0 0 0 0 0 0 0 0 0 0 0 0
0 0 0 0 0 0 0 0 0 0 0 0 0 0 0 0 0 0 0 0 0 0 0 0 0 0 0 0 0 0 0 0 0 0 0 0 0 0 0 0 0 0 0 0
0 0 0 0 0 0 0 0 0 0 0 0 0 0 0 0 0 0 0 0 0 0 0 0 0 0 0 0 0 0 0 0 0 0 0 0 0 0 0 0 0 0 0 0
0 0 0 0 0 0 0 0 0 0 0 0 0 0 0 0 0 0 0 0 0 0 0 0 0 0 0 0 0 0 0 0 0 0 0 0 0 0 0 0 0 0 0 0
0 0 0 0 0 0 0 0 0 0 0 0 0 0 0 0 0 0 0 0 0 0 0 0 0 0 0 0 0 0 0 0 0 0 0 0 0 0 0 0 0 0 0 0
0 0 0 0 0 0 0 0 0 0 0 0 0 0 0 0 0 0 0 0 0 0 0 0 0 0 0 0 0 0 0 0 0 0 0 0 0 0 0 0 0 0 0 0
0 0 0 0 0 0 0 0 0 0 0 0 0 0 0 0 0 0 0 0 0 0 0 0 0 0 0 0 0 0 0 0 0 0 0 0 0 0 0 0 0 0 0 0
0 0 0 0 0 0 0 0 0 0 0 0 0 0 0 0 0 0 0 0 0 0 0 0 0 0 0 0 0 0 0 0 0 0 0 0 0 0 0 0 0 0 0 0
Wind_Speed
7 7 13 14 11 5 6 7 7 7 5 6 8 8 7 6 7 8 9 10 11 14 12 10 11 11 11 12 13 15 14 12 10 8 7 7 6 4 4 5 6 7 7 7
6 14 12 7 7 6 5 6 6 2 1 5 6 8 6 5 8 10 12 12 13 10 8 9 9 10 12 14 14 14 15 14 13 10 8 5 4 4 4 4 5 6 7 7
12 6 9 8 7 9 8 7 6 5 1 1 3 5 7 7 6 7 8 9 9 12 12 11 10 10 11 12 14 13 14 14 13 10 6 4 4 3 4 4 4 6 7 6
7 6 12 10 10 11 11 8 7 6 6 5 6 5 8 7 7 9 11 10 10 9 9 9 9 9 9 10 9 10 12 12 12 11 10 9 7 7 6 4 4 4 5 6
10 9 13 15 13 11 7 7 7 6 6 3 3 4 9 3 8 11 12 12 11 9 9 8 8 8 6 5 6 7 8 10 11 12 12 11 7 5 4 4 5 4 3 3
6 6 10 11 8 9 5 6 4 3 3 6 8 7 9 7 10 9 9 11 10 8 6 5 4 4 3 3 3 5 7 8 10 12 12 12 10 8 6 5 5 3 2 2
6 5 5 6 8 6 8 8 4 2 4 8 4 6 11 9 8 9 10 10 8 7 7 6 6 5 4 4 4 4 6 6 8 10 11 11 10 9 8 6 5 5 3 2
11 9 9 8 10 11 11 13 10 9 8 4 3 9 10 6 4 3 4 5 6 7 6 6 6 5 4 4 4 4 6 6 6 8 9 8 8 6 5 5 5 5 4 4
13 8 4 4 4 13 10 8 7 7 4 3 6 7 10 4 3 2 3 6 7 7 6 6 5 4 4 4 3 4 6 5 6 7 8 8 8 8 8 8 7 6 5 5
10 7 4 3 3 0 9 10 6 6 8 5 5 6 7 7 10 8 8 9 8 7 6 6 5 4 4 3 3 4 5 6 6 7 8 8 9 9 9 9 8 8 7 6
6 9 4 4 8 11 7 7 7 6 6 8 5 9 9 11 11 13 13 10 9 9 8 6 5 4 4 4 4 5 6 7 7 8 9 10 10 10 10 9 8 8 7 7
5 8 5 4 2 3 5 9 10 9 7 5 5 9 4 5 5 6 9 9 9 8 7 7 6 5 5 5 5 5 6 7 7 9 10 11 10 10 10 9 8 8 8 7
9 10 8 2 1 4 5 6 8 7 6 6 7 9 3 1 3 3 6 8 9 9 8 7 6 6 6 5 5 5 6 7 7 9 11 11 10 10 10 9 8 7 8 7
10 7 10 16 11 9 6 6 7 8 7 8 10 8 5 5 5 5 6 8 9 9 9 9 7 6 6 6 6 6 6 6 8 9 10 10 9 9 9 8 8 7 7 7
10 7 6 5 5 11 9 11 11 10 11 12 13 12 11 9 9 8 8 9 10 10 11 11 10 9 8 7 7 7 7 6 8 9 10 9 8 8 8 8 7 7 6 6
9 10 7 3 4 7 6 10 13 12 11 11 8 11 8 5 4 6 9 12 13 14 14 13 12 12 12 11 10 9 8 7 7 9 9 8 8 8 8 7 7 7 6 5
9 9 9 6 4 5 7 14 17 12 10 12 17 15 5 5 9 12 14 15 17 16 15 16 15 15 13 12 12 11 10 8 8 9 9 8 8 8 7 7 7 6 5 5
11 9 6 6 6 8 13 7 11 15 15 14 12 6 10 12 11 10 13 16 16 15 15 16 15 14 12 11 10 10 9 9 9 9 8 8 8 8 7 6 6 5 4 4
7 11 7 6 7 9 9 6 11 12 15 14 15 10 6 4 1 5 9 12 15 16 15 14 13 12 12 13 13 12 11 10 10 9 9 7 8 8 7 7 6 4 4 3
5 7 8 7 8 14 12 7 7 6 13 11 12 11 8 8 6 10 8 11 11 9 9 10 11 11 14 13 14 14 13 11 11 10 8 7 7 7 7 6 5 3 3 3
6 5 7 7 7 12 7 4 10 11 14 4 8 10 12 14 13 5 5 7 8 8 8 11 13 13 13 14 14 14 12 11 9 8 8 7 6 6 6 5 4 4 3 3
12 9 8 7 8 13 4 8 12 9 1 2 2 4 7 8 4 1 3 4 6 8 9 12 13 12 12 14 15 14 12 9 9 9 8 7 6 5 5 6 5 4 4 4
9 10 9 11 10 2 6 7 4 3 3 2 2 2 4 4 3 3 3 4 5 8 9 9 12 12 10 10 12 14 11 11 10 9 8 7 6 5 5 5 5 4 3 3
3 2 5 4 4 2 2 1 1 2 2 2 2 2 4 4 4 4 5 5 6 7 8 9 12 13 10 8 7 9 12 11 11 10 9 7 7 6 4 3 3 3 3 3
6 6 5 4 2 2 1 2 2 2 2 2 2 2 3 5 5 5 6 6 6 6 6 7 10 12 11 9 9 9 11 11 11 9 8 7 6 6 5 3 2 3 2 3
3 6 7 5 6 6 4 3 3 3 2 2 2 2 2 4 5 6 6 5 6 7 7 7 8 10 10 10 9 9 9 10 11 9 8 6 5 5 4 4 2 1 1 2
Wind_Direction
162 168 200 199 191 185 173 170 190 213 207 168 198 220 228 202 199 208 211 210 212 218 219 208 202 196 188 187 187 187 186 185 179 182 186 189 194 189 190 192 193 193 194 192
152 211 200 175 186 208 205 192 197 227 184 175 207 237 246 220 211 209 207 211 215 218 218 210 202 193 190 189 189 189 189 186 185 189 189 185 176 185 193 191 196 197 196 196
183 193 163 177 191 205 225 204 193 185 108 107 156 262 253 247 232 234 226 219 216 208 208 204 197 195 192 192 191 190 190 188 188 181 172 162 170 177 191 198 200 203 201 199
196 182 165 186 203 191 226 215 184 163 149 209 177 225 259 234 240 235 231 224 222 216 206 199 192 190 192 194 190 189 187 187 185 178 180 180 189 196 197 188 195 203 201 199
206 182 175 195 203 184 208 187 178 176 169 173 198 193 266 239 234 238 230 222 218 209 197 193 190 188 184 179 181 185 182 185 183 182 185 186 191 190 174 174 182 193 192 186
194 185 184 193 189 183 154 105 84 88 123 212 207 182 253 226 214 226 225 217 208 196 185 175 163 151 148 145 161 172 175 184 183 184 186 188 187 179 171 176 174 169 136 105
186 202 199 168 150 169 164 139 131 168 210 233 195 198 242 238 225 220 220 211 195 179 166 160 155 152 151 153 162 170 170 177 180 181 185 186 182 176 176 171 162 147 127 106
167 202 200 185 169 171 189 169 167 178 201 240 200 224 246 252 258 254 220 182 164 168 167 163 161 155 153 155 159 164 166 166 167 169 171 167 161 155 149 142 134 128 119 113
171 194 176 190 171 150 165 192 161 129 117 169 234 264 294 263 253 225 176 165 176 173 166 160 152 146 148 147 152 158 152 146 146 145 140 135 133 126 121 115 111 109 108 104
141 153 182 172 111 352 161 150 124 141 156 210 248 241 233 223 226 220 207 198 188 172 163 157 152 147 141 136 124 122 129 129 125 123 122 118 114 114 115 111 108 107 103 100
121 133 149 155 183 175 148 160 156 154 169 169 219 254 220 210 209 210 210 198 182 176 171 163 152 141 130 118 114 113 113 113 112 111 110 108 106 107 106 105 107 107 102 98
121 117 140 206 242 201 173 175 160 175 206 187 185 260 257 225 238 219 204 187 178 173 165 156 149 139 133 129 124 119 117 113 112 111 108 107 107 107 106 107 105 103 99 93
137 122 112 93 235 211 211 197 181 164 139 168 191 253 285 247 248 215 185 173 167 162 158 155 152 151 148 142 134 125 119 117 114 114 112 110 110 110 110 110 105 101 100 95
126 132 163 186 196 170 188 193 173 150 177 205 219 231 255 237 226 207 180 169 164 168 168 167 166 163 156 149 143 135 126 123 120 116 115 114 114 114 113 109 103 100 100 99
137 162 181 188 167 159 181 186 179 189 194 201 223 218 225 220 213 201 177 166 168 177 181 180 176 170 163 156 150 142 135 129 126 122 119 118 115 112 110 107 103 99 95 95
157 166 155 165 174 172 183 193 192 208 209 220 233 238 225 220 173 171 177 179 188 193 192 186 180 176 174 170 163 153 145 137 130 127 124 123 120 116 113 111 109 105 99 96
156 144 155 185 137 110 227 205 196 207 214 205 228 235 167 193 197 197 192 194 201 199 192 188 187 184 180 174 166 160 151 137 130 129 129 129 127 122 120 119 114 109 106 103
143 138 137 136 126 205 233 201 189 209 225 216 226 215 187 203 208 206 195 196 204 199 194 192 188 183 173 163 154 145 141 140 138 137 137 136 133 128 125 120 115 110 106 104
136 133 125 143 180 246 270 218 189 197 238 225 227 227 206 203 179 255 213 202 206 200 194 189 181 170 161 159 153 146 145 145 145 147 146 145 141 137 133 128 122 117 113 104
91 116 126 141 172 223 237 205 168 151 251 231 212 215 188 152 206 240 207 200 206 191 174 165 155 150 158 158 152 152 155 155 158 155 148 142 140 139 137 133 126 117 117 110
131 132 153 163 201 247 239 176 133 177 237 217 198 201 184 195 220 225 173 190 186 170 159 154 154 159 162 156 155 157 158 163 153 140 135 133 133 132 131 125 119 124 120 111
167 165 179 164 204 238 187 148 175 207 182 162 185 195 194 211 223 159 156 166 154 148 148 152 154 155 154 157 158 158 161 149 138 137 136 134 131 129 128 127 126 124 126 122
189 184 177 189 213 190 170 180 193 151 157 170 176 182 172 183 194 178 162 153 147 146 147 147 146 144 147 158 160 157 151 143 140 138 138 137 131 126 132 138 138 134 135 136
230 134 142 191 230 194 182 151 133 149 169 180 172 160 158 169 167 160 154 149 144 140 142 140 143 147 150 148 142 141 143 145 144 144 144 144 142 140 137 137 144 150 156 151
178 158 161 197 171 114 283 226 185 135 117 117 112 135 157 154 161 163 159 156 150 140 138 147 153 153 150 142 134 138 146 147 145 146 147 149 150 150 148 145 159 166 179 177
183 169 170 198 184 169 195 209 170 157 168 168 143 115 120 158 162 154 156 152 148 147 145 146 147 148 148 146 143 146 151 152 150 151 156 159 156 155 155 152 143 155 167 215